DW5893 Weather Reports


Display with metric or nautical units.
time (UTC)temp
F
wind
direction
speed
MPH
gust
MPH
rain 1hr
in
rain 24hr
in
rain mn
in
humidity
%
barometer
mb
20210619060507 52 210 2.0 0.0 0.00 0.00 0.00 79 1002.3
20210619060020 53 210 2.0 0.0 0.00 0.00 0.00 78 1002.3
20210619055505 53 210 3.0 0.0 0.00 0.00 0.00 78 1002.4
20210619055005 53 220 3.0 0.0 0.00 0.00 0.00 77 1002.5
20210619054512 54 234 3.0 0.0 0.00 0.00 0.00 77 1002.5
20210619054005 54 230 3.0 0.0 0.00 0.00 0.00 76 1002.5
20210619053505 54 221 3.0 0.0 0.00 0.00 0.00 76 1002.6
20210619053008 54 219 3.0 0.0 0.00 0.00 0.00 76 1002.6
20210619051649 54 226 3.0 0.0 0.00 0.00 0.00 75 1002.7
20210619051504 55 225 3.0 0.0 0.00 0.00 0.00 75 1002.7
20210619051108 55 230 3.0 0.0 0.00 0.00 0.00 74 1002.7
20210619050600 55 223 2.0 0.0 0.00 0.00 0.00 74 1002.8
20210619050207 55 228 1.0 0.0 0.00 0.00 0.00 74 1002.8
20210619045644 55 229 1.0 0.0 0.00 0.00 0.00 74 1002.7
20210619045100 56 227 1.0 0.0 0.00 0.00 0.00 74 1002.8
20210619044721 55 187 0.0 0.0 0.00 0.00 0.00 75 1002.9
20210619044106 55 187 1.0 0.0 0.00 0.00 0.00 76 1002.8
20210619043559 55 188 1.0 0.0 0.00 0.00 0.00 77 1002.8
20210619043114 55 136 0.0 0.0 0.00 0.00 0.00 78 1002.9
20210619042015 54 85 0.0 0.0 0.00 0.00 0.00 77 1002.8
20210619041523 55 85 0.0 0.0 0.00 0.00 0.00 76 1002.8
20210619041034 55 85 0.0 0.0 0.00 0.00 0.00 76 1002.8
20210619040521 55 85 0.0 0.0 0.00 0.00 0.00 76 1002.7
20210619040035 56 85 0.0 0.0 0.00 0.00 0.00 75 1002.8
20210619035522 56 85 0.0 0.0 0.00 0.00 0.00 74 1002.7
20210619035019 56 85 0.0 0.0 0.00 0.00 0.00 74 1002.7
20210619034528 57 85 0.0 0.0 0.00 0.00 0.00 74 1002.6
20210619034015 57 85 0.0 0.0 0.00 0.00 0.00 73 1002.6
20210619033519 57 85 0.0 0.0 0.00 0.00 0.00 72 1002.6
20210619032022 58 85 0.0 0.0 0.00 0.00 0.00 72 1002.5
20210619031543 59 85 1.0 0.0 0.00 0.00 0.00 71 1002.4
20210619031015 59 85 2.0 0.0 0.00 0.00 0.00 71 1002.4
20210619030514 59 85 2.0 0.0 0.00 0.00 0.00 71 1002.5
20210619030027 60 77 2.0 0.0 0.00 0.00 0.00 70 1002.4
20210619025520 61 77 2.0 0.0 0.00 0.00 0.00 68 1002.3
20210619025014 62 77 2.0 0.0 0.00 0.00 0.00 67 1002.3
20210619024523 63 76 2.0 0.0 0.00 0.00 0.00 65 1002.3
20210619024019 64 76 3.0 0.0 0.00 0.00 0.00 63 1002.2
20210619023520 65 74 4.0 0.0 0.00 0.00 0.00 60 1002.2
20210619023105 65 63 4.0 0.0 0.00 0.00 0.00 59 1002.2
20210619022012 66 58 4.0 0.0 0.00 0.00 0.00 56 1002.1
20210619021505 67 57 4.0 0.0 0.00 0.00 0.00 55 1002.2
20210619021004 68 61 4.0 0.0 0.00 0.00 0.00 55 1002.1
20210619020504 68 63 5.0 0.0 0.00 0.00 0.00 55 1002.0
20210619020014 69 53 5.0 0.0 0.00 0.00 0.00 54 1002.0
20210619015504 69 59 4.0 0.0 0.00 0.00 0.00 52 1002.0
20210619015022 70 67 4.0 0.0 0.00 0.00 0.00 52 1002.0
20210619014508 70 63 4.0 0.0 0.00 0.00 0.00 52 1002.0
20210619014005 70 58 5.0 0.0 0.00 0.00 0.00 50 1002.0
20210619013504 70 42 6.0 0.0 0.00 0.00 0.00 50 1002.0
20210619012054 71 46 7.0 0.0 0.00 0.00 0.00 50 1002.0
20210619011602 71 32 7.0 0.0 0.00 0.00 0.00 48 1002.0
20210619011052 72 51 7.0 0.0 0.00 0.00 0.00 46 1002.0
20210619010548 72 32 6.0 0.0 0.00 0.00 0.00 45 1002.0
20210619010206 72 24 7.0 0.0 0.00 0.00 0.00 46 1002.0
20210619005552 73 46 7.0 0.0 0.00 0.00 0.00 44 1001.9
20210619005107 73 42 6.0 0.0 0.00 0.00 0.00 44 1001.9
20210619004623 73 19 5.0 0.0 0.00 0.00 0.00 43 1001.9
20210619004048 73 346 7.0 0.0 0.00 0.00 0.00 42 1001.9
20210619003548 73 347 7.0 0.0 0.00 0.00 0.00 41 1001.9
20210619003138 74 5 8.0 0.0 0.00 0.00 0.00 43 1001.9
20210619002044 74 355 6.0 0.0 0.00 0.00 0.00 43 1002.0
20210619001548 74 19 6.0 0.0 0.00 0.00 0.00 42 1002.0
20210619001106 73 338 8.0 0.0 0.00 0.00 0.00 43 1002.0
20210619000537 73 344 8.0 0.0 0.00 0.00 0.00 41 1002.0
20210619000103 74 348 7.0 0.0 0.00 0.00 0.00 43 1001.9
20210618235544 74 351 7.0 0.0 0.00 0.00 0.00 42 1002.0
20210618234506 73 344 8.0 0.0 0.00 0.00 0.00 44 1002.0
20210618234056 73 348 9.0 0.0 0.00 0.00 0.00 41 1002.1
20210618233556 73 16 10.0 0.0 0.00 0.00 0.00 41 1002.2
20210618233240 74 5 9.0 0.0 0.00 0.00 0.00 41 1002.2
20210618232555 74 360 8.0 0.0 0.00 0.00 0.00 41 1002.2
20210618232055 74 339 8.0 0.0 0.00 0.00 0.00 42 1002.3
20210618231706 74 11 8.0 0.0 0.00 0.00 0.00 41 1002.3
20210618231101 74 304 9.0 0.0 0.00 0.00 0.00 41 1002.2
20210618230558 73 360 10.0 0.0 0.00 0.00 0.00 41 1002.3
20210618230153 74 10 11.0 0.0 0.00 0.00 0.00 39 1002.4
20210618225553 74 345 9.0 0.0 0.00 0.00 0.00 41 1002.4
20210618225056 74 355 8.0 0.0 0.00 0.00 0.00 41 1002.5
20210618224502 74 308 8.0 0.0 0.00 0.00 0.00 41 1002.5
20210618224001 74 11 10.0 0.0 0.00 0.00 0.00 40 1002.5
20210618223503 74 10 11.0 0.0 0.00 0.00 0.00 42 1002.6
20210618223212 74 5 10.0 0.0 0.00 0.00 0.00 40 1002.7
20210618222609 74 355 10.0 0.0 0.00 0.00 0.00 39 1002.7
20210618222059 74 350 10.0 0.0 0.00 0.00 0.00 39 1002.8
20210618221635 74 17 11.0 0.0 0.00 0.00 0.00 40 1002.8
20210618221058 74 311 12.0 0.0 0.00 0.00 0.00 40 1003.0
20210618220557 74 346 12.0 0.0 0.00 0.00 0.00 41 1003.1
20210618215556 74 330 12.0 0.0 0.00 0.00 0.00 38 1003.0
20210618215057 75 338 12.0 0.0 0.00 0.00 0.00 38 1003.1
20210618214522 75 336 12.0 0.0 0.00 0.00 0.00 37 1003.1
20210618214100 75 355 11.0 0.0 0.00 0.00 0.00 40 1002.9
20210618214004 75 329 12.0 0.0 0.00 0.00 0.00 37 1003.0
20210618213604 75 319 11.0 0.0 0.00 0.00 0.00 36 1002.9
20210618213017 75 333 12.0 0.0 0.00 0.00 0.00 37 1002.9
20210618212559 75 333 13.0 0.0 0.00 0.00 0.00 36 1003.1
20210618212058 75 339 12.0 0.0 0.00 0.00 0.00 37 1003.0
20210618211122 75 303 10.0 0.0 0.00 0.00 0.00 36 1003.1
20210618210558 75 292 10.0 0.0 0.00 0.00 0.00 36 1003.2
20210618210224 74 303 10.0 0.0 0.00 0.00 0.00 40 1003.2
20210618205606 73 319 11.0 0.0 0.00 0.00 0.00 39 1003.2
20210618205056 75 355 10.0 0.0 0.00 0.00 0.00 39 1003.2
20210618204108 74 345 10.0 0.0 0.00 0.00 0.00 39 1003.3
20210618203556 74 306 12.0 0.0 0.00 0.00 0.00 39 1003.3
20210618203121 74 296 12.0 0.0 0.00 0.00 0.00 37 1003.3
20210618202555 74 331 10.0 0.0 0.00 0.00 0.00 39 1003.4
20210618202055 74 342 10.0 0.0 0.00 0.00 0.00 42 1003.4
20210618201615 73 332 10.0 0.0 0.00 0.00 0.00 42 1003.5
20210618201053 72 326 9.0 0.0 0.00 0.00 0.00 42 1003.5
20210618200556 72 317 10.0 0.0 0.00 0.00 0.00 41 1003.5
20210618195551 73 355 7.0 0.0 0.00 0.00 0.00 43 1003.6
20210618195056 72 325 9.0 0.0 0.00 0.00 0.00 41 1003.7
20210618194110 73 333 11.0 0.0 0.00 0.00 0.00 41 1003.7
20210618193547 72 323 12.0 0.0 0.00 0.00 0.00 43 1003.7
20210618193206 73 344 10.0 0.0 0.00 0.00 0.00 44 1003.7
20210618192546 72 355 9.0 0.0 0.00 0.00 0.00 43 1003.8
20210618192046 73 334 10.0 0.0 0.00 0.00 0.00 45 1003.8
20210618191627 71 333 11.0 0.0 0.00 0.00 0.00 45 1003.8
20210618191046 72 322 11.0 0.0 0.00 0.00 0.00 44 1003.8
20210618190549 72 13 11.0 0.0 0.00 0.00 0.00 43 1003.9
20210618190121 72 329 10.0 0.0 0.00 0.00 0.00 45 1003.8
20210618185559 72 300 11.0 0.0 0.00 0.00 0.00 43 1004.0
20210618185050 72 342 11.0 0.0 0.00 0.00 0.00 46 1004.1
20210618184033 71 301 10.0 0.0 0.00 0.00 0.00 45 1004.0
20210618183531 72 333 9.0 0.0 0.00 0.00 0.00 45 1004.2
20210618183039 72 306 9.0 0.0 0.00 0.00 0.00 45 1004.2
20210618182529 71 351 10.0 0.0 0.00 0.00 0.00 46 1004.1
20210618182031 71 329 12.0 0.0 0.00 0.00 0.00 45 1004.3
20210618181547 71 360 10.0 0.0 0.00 0.00 0.00 47 1004.1
20210618181023 70 304 10.0 0.0 0.00 0.00 0.00 46 1004.2
20210618180523 70 341 11.0 0.0 0.00 0.00 0.00 46 1004.2
20210618180044 70 319 11.0 0.0 0.00 0.00 0.00 45 1004.2
20210618175525 70 340 12.0 0.0 0.00 0.00 0.00 46 1004.3
20210618174050 70 355 10.0 0.0 0.00 0.00 0.00 47 1004.3
20210618173537 70 336 10.0 0.0 0.00 0.00 0.00 46 1004.2
20210618173134 69 286 11.0 0.0 0.00 0.00 0.00 46 1004.2
20210618172542 69 348 11.0 0.0 0.00 0.00 0.00 47 1004.2
20210618172040 70 355 10.0 0.0 0.00 0.00 0.00 47 1004.3
20210618171612 69 336 11.0 0.0 0.00 0.00 0.00 48 1004.2
20210618171034 68 295 11.0 0.0 0.00 0.00 0.00 49 1004.3
20210618170536 68 342 10.0 0.0 0.00 0.00 0.00 48 1004.4
20210618170121 68 336 11.0 0.0 0.00 0.00 0.00 49 1004.3
20210618165535 68 302 12.0 0.0 0.00 0.00 0.00 49 1004.5
20210618165038 67 360 11.0 0.0 0.00 0.00 0.00 49 1004.5
20210618164042 67 342 11.0 0.0 0.00 0.00 0.00 51 1004.4
20210618163531 67 355 12.0 0.0 0.00 0.00 0.00 51 1004.5
20210618163115 67 334 12.0 0.0 0.00 0.00 0.00 50 1004.4
20210618162545 67 355 12.0 0.0 0.00 0.00 0.00 52 1004.4
20210618162036 66 349 10.0 0.0 0.00 0.00 0.00 53 1004.4
20210618161542 67 324 9.0 0.0 0.00 0.00 0.00 53 1004.4
20210618161038 66 331 11.0 0.0 0.00 0.00 0.00 53 1004.3
20210618160545 66 344 13.0 0.0 0.00 0.00 0.00 52 1004.3
20210618160050 66 332 13.0 0.0 0.00 0.00 0.00 51 1004.4
20210618155527 66 329 14.0 0.0 0.00 0.00 0.00 52 1004.4
20210618155030 65 339 14.0 0.0 0.00 0.00 0.00 51 1004.4
20210618154102 65 306 14.0 0.0 0.00 0.00 0.00 53 1004.4
20210618153550 65 336 14.0 0.0 0.00 0.00 0.00 52 1004.4
20210618153139 64 341 13.0 0.0 0.00 0.00 0.00 54 1004.3
20210618152607 64 315 11.0 0.0 0.00 0.00 0.00 53 1004.3
20210618152038 64 336 10.0 0.0 0.00 0.00 0.00 55 1004.2
20210618151558 64 360 9.0 0.0 0.00 0.00 0.00 55 1004.3
20210618151104 64 310 9.0 0.0 0.00 0.00 0.00 55 1004.2
20210618150537 63 355 10.0 0.0 0.00 0.00 0.00 56 1004.2
20210618150058 63 360 9.0 0.0 0.00 0.00 0.00 56 1004.1
20210618145546 63 338 8.0 0.0 0.00 0.00 0.00 55 1004.1
20210618145033 63 294 9.0 0.0 0.00 0.00 0.00 54 1004.1
20210618144031 63 355 9.0 0.0 0.00 0.00 0.00 55 1004.2
20210618143537 63 327 8.0 0.0 0.00 0.00 0.00 55 1004.2
20210618143025 63 335 7.0 0.0 0.00 0.00 0.00 56 1004.0
20210618142519 63 311 7.0 0.0 0.00 0.00 0.00 55 1004.0
20210618142017 62 360 7.0 0.0 0.00 0.00 0.00 55 1004.0
20210618141606 62 331 8.0 0.0 0.00 0.00 0.00 55 1004.0
20210618141016 62 331 8.0 0.0 0.00 0.00 0.00 56 1004.0
20210618140522 62 355 8.0 0.0 0.00 0.00 0.00 55 1004.0
20210618140022 61 319 7.0 0.0 0.00 0.00 0.00 57 1004.0
20210618135513 61 333 6.0 0.0 0.00 0.00 0.00 59 1004.1
20210618135012 61 334 6.0 0.0 0.00 0.00 0.00 58 1004.1
20210618134050 60 355 6.0 0.0 0.00 0.00 0.00 60 1004.1
20210618133549 60 344 6.0 0.0 0.00 0.00 0.00 62 1004.1
20210618133108 60 350 5.0 0.0 0.00 0.00 0.00 62 1004.1
20210618132548 60 338 4.0 0.0 0.00 0.00 0.00 61 1004.1
20210618132047 60 344 3.0 0.0 0.00 0.00 0.00 61 1004.0
20210618131611 59 321 2.0 0.0 0.00 0.00 0.00 62 1003.9
20210618131044 58 296 2.0 0.0 0.00 0.00 0.00 63 1003.8
20210618130542 58 277 1.0 0.0 0.00 0.00 0.00 63 1003.8
20210618130050 57 221 1.0 0.0 0.00 0.00 0.00 64 1003.7
20210618125539 57 196 1.0 0.0 0.00 0.00 0.00 68 1003.6
20210618125100 56 196 0.0 0.0 0.00 0.00 0.00 73 1003.7
20210618124124 55 196 0.0 0.0 0.00 0.00 0.00 73 1003.7
20210618123559 54 196 0.0 0.0 0.00 0.00 0.00 75 1003.7
20210618123146 52 196 0.0 0.0 0.00 0.00 0.00 77 1003.6
20210618122556 51 196 0.0 0.0 0.00 0.00 0.00 77 1003.5
20210618122100 50 196 1.0 0.0 0.00 0.00 0.00 80 1003.5
20210618121647 50 196 1.0 0.0 0.00 0.00 0.00 80 1003.5
20210618121058 49 197 0.0 0.0 0.00 0.00 0.00 81 1003.5
20210618120604 49 197 0.0 0.0 0.00 0.00 0.00 79 1003.4
20210618120126 48 197 0.0 0.0 0.00 0.00 0.00 78 1003.4
20210618115555 48 197 1.0 0.0 0.00 0.00 0.00 78 1003.3
20210618115059 47 196 1.0 0.0 0.00 0.00 0.00 79 1003.1
20210618114057 46 196 1.0 0.0 0.00 0.00 0.00 79 1002.9
20210618113624 46 196 1.0 0.0 0.00 0.00 0.00 80 1002.9
20210618113155 46 196 2.0 0.0 0.00 0.00 0.00 79 1002.9
20210618112604 46 196 2.0 0.0 0.00 0.00 0.00 79 1002.9
20210618112057 46 189 2.0 0.0 0.00 0.00 0.00 79 1002.9
20210618111646 45 173 1.0 0.0 0.00 0.00 0.00 79 1002.8
20210618111056 45 161 1.0 0.0 0.00 0.00 0.00 80 1002.8
20210618110559 45 160 3.0 0.0 0.00 0.00 0.00 80 1002.8
20210618110424 45 161 4.0 0.0 0.00 0.00 0.00 79 1002.7
20210618105555 46 161 2.0 0.0 0.00 0.00 0.00 77 1002.7
20210618105107 47 264 1.0 0.0 0.00 0.00 0.00 77 1002.7
20210618104045 46 259 1.0 0.0 0.00 0.00 0.00 79 1002.4
20210618103607 45 259 2.0 0.0 0.00 0.00 0.00 80 1002.4
20210618103129 45 261 1.0 0.0 0.00 0.00 0.00 80 1002.4
20210618102545 45 49 1.0 0.0 0.00 0.00 0.00 80 1002.1
20210618102048 45 40 1.0 0.0 0.00 0.00 0.00 79 1002.1
20210618101617 45 41 1.0 0.0 0.00 0.00 0.00 79 1002.0
20210618101047 46 40 0.0 0.0 0.00 0.00 0.00 78 1002.1
20210618100600 46 344 0.0 0.0 0.00 0.00 0.00 79 1002.0
20210618100112 46 344 1.0 0.0 0.00 0.00 0.00 79 1002.0
20210618095548 46 344 2.0 0.0 0.00 0.00 0.00 80 1002.0
20210618095044 46 346 2.0 0.0 0.00 0.00 0.00 78 1001.9
20210618094052 46 96 1.0 0.0 0.00 0.00 0.00 78 1001.5
20210618093606 47 108 1.0 0.0 0.00 0.00 0.00 77 1001.3
20210618093245 46 108 2.0 0.0 0.00 0.00 0.00 80 1001.3
20210618092553 45 105 2.0 0.0 0.00 0.00 0.00 82 1001.2
20210618092052 44 105 3.0 0.0 0.00 0.00 0.00 83 1001.1
20210618091819 44 84 1.0 0.0 0.00 0.00 0.00 82 1001.1
20210618091049 45 59 0.0 0.0 0.00 0.00 0.00 81 1001.0
20210618090625 45 218 0.0 0.0 0.00 0.00 0.00 80 1001.1
20210618090057 45 218 0.0 0.0 0.00 0.00 0.00 80 1000.9
20210618085602 46 218 0.0 0.0 0.00 0.00 0.00 79 1000.9
20210618085046 46 218 0.0 0.0 0.00 0.00 0.00 79 1000.8
20210618084026 46 218 0.0 0.0 0.00 0.00 0.00 78 1000.5
20210618083537 46 218 0.0 0.0 0.00 0.00 0.00 79 1000.5
20210618083030 46 218 0.0 0.0 0.00 0.00 0.00 79 1000.5
20210618082525 46 218 0.0 0.0 0.00 0.00 0.00 78 1000.6
20210618082024 46 218 0.0 0.0 0.00 0.00 0.00 78 1000.4
20210618081530 46 218 0.0 0.0 0.00 0.00 0.00 78 1000.6
20210618081045 47 218 1.0 0.0 0.00 0.00 0.00 77 1000.5
20210618080523 47 217 1.0 0.0 0.00 0.00 0.00 77 1000.4
20210618080022 47 217 1.0 0.0 0.00 0.00 0.00 77 1000.5
20210618075523 47 217 1.0 0.0 0.00 0.00 0.00 76 1000.4
20210618075021 48 217 2.0 0.0 0.00 0.00 0.00 76 1000.4
20210618074049 48 205 2.0 0.0 0.00 0.00 0.00 75 1000.4
20210618073547 48 203 1.0 0.0 0.00 0.00 0.00 75 1000.4
20210618073212 48 197 1.0 0.0 0.00 0.00 0.00 74 1000.4
20210618072544 48 197 2.0 0.0 0.00 0.00 0.00 75 1000.4
20210618072041 49 197 2.0 0.0 0.00 0.00 0.00 74 1000.5
20210618071638 50 242 1.0 0.0 0.00 0.00 0.00 72 1000.6
20210618071042 50 244 1.0 0.0 0.00 0.00 0.00 72 1000.5
20210618070540 50 254 1.0 0.0 0.00 0.00 0.00 71 1000.5
20210618070124 50 351 1.0 0.0 0.00 0.00 0.00 70 1000.4
20210618065542 50 355 1.0 0.0 0.00 0.00 0.00 71 1000.4
20210618065040 50 355 1.0 0.0 0.00 0.00 0.00 70 1000.4
20210618064048 50 351 2.0 0.0 0.00 0.00 0.00 70 1000.3
20210618063540 50 346 2.0 0.0 0.00 0.00 0.00 70 1000.4
20210618063136 51 313 2.0 0.0 0.00 0.00 0.00 67 1000.3
20210618062615 52 186 2.0 0.0 0.00 0.00 0.00 64 1000.2
20210618062052 52 198 2.0 0.0 0.00 0.00 0.00 65 1000.2
20210618061647 52 195 2.0 0.0 0.00 0.00 0.00 67 1000.2
20210618061039 51 200 2.0 0.0 0.00 0.00 0.00 68 1000.3